FW4463 Weather Reports


Display with metric or nautical units.
time (UTC)temp
F
wind
direction
speed
MPH
gust
MPH
rain 1hr
in
rain 24hr
in
rain mn
in
humidity
%
barometer
mb
20260503183729 60 301 0.0 3.0 0.00 0.00 0.00 51 1013.4
20260503183230 60 315 0.0 3.0 0.00 0.00 0.00 52 1013.4
20260503182729 60 228 1.0 3.0 0.00 0.00 0.00 52 1013.5
20260503182232 60 244 1.0 4.0 0.00 0.00 0.00 51 1013.5
20260503181729 60 259 1.0 6.0 0.00 0.00 0.00 51 1013.4
20260503181229 61 303 1.0 6.0 0.00 0.00 0.00 50 1013.3
20260503180733 62 290 1.0 6.0 0.00 0.00 0.00 49 1013.4
20260503180459 63 272 1.0 4.0 0.00 0.00 0.00 48 1013.4
20260503175730 63 336 1.0 4.0 0.00 0.00 0.00 48 1013.3
20260503175230 63 140 1.0 7.0 0.00 0.00 0.00 49 1013.2
20260503174729 62 82 2.0 8.0 0.00 0.00 0.00 50 1013.2
20260503174228 61 116 2.0 8.0 0.00 0.00 0.00 51 1013.1
20260503173950 60 110 1.0 5.0 0.00 0.00 0.00 51 1013.2
20260503173216 60 127 1.0 4.0 0.00 0.00 0.00 53 1013.2
20260503172713 60 109 1.0 4.0 0.00 0.00 0.00 54 1013.2
20260503172211 59 181 1.0 4.0 0.00 0.00 0.00 54 1013.2
20260503171712 59 88 1.0 5.0 0.00 0.00 0.00 54 1013.2
20260503171211 59 114 1.0 6.0 0.00 0.00 0.00 52 1013.3
20260503170711 60 194 1.0 6.0 0.00 0.00 0.00 51 1013.2
20260503170211 60 106 1.0 3.0 0.00 0.00 0.00 52 1013.3
20260503150644 56 225 0.0 1.0 0.00 0.00 0.00 53 1012.6
20260503150143 56 116 0.0 1.0 0.00 0.00 0.00 53 1012.5
20260503140132 54 99 0.0 1.0 0.00 0.00 0.00 55 1012.1
20260503131349 54 23 0.0 1.0 0.00 0.00 0.00 56 1011.2
20260503130852 54 273 0.0 1.0 0.00 0.00 0.00 56 1011.1
20260503130129 54 273 0.0 1.0 0.00 0.00 0.00 56 1011.1
20260503110602 54 139 0.0 1.0 0.00 0.00 0.00 56 1011.2
20260503090246 54 288 0.0 3.0 0.00 0.00 0.00 55 1011.5
20260503081507 54 300 0.0 1.0 0.00 0.00 0.00 55 1011.8
20260503081005 54 134 0.0 1.0 0.00 0.00 0.00 55 1011.9
20260503080736 54 86 0.0 1.0 0.00 0.00 0.00 56 1012.0
20260503072002 55 105 0.0 3.0 0.00 0.00 0.00 57 1012.0
20260503071501 55 313 0.0 3.0 0.00 0.00 0.00 57 1012.0
20260503071005 55 225 0.0 2.0 0.00 0.00 0.00 56 1012.0
20260503070502 55 99 0.0 2.0 0.00 0.00 0.00 56 1012.0
20260503054944 55 101 0.0 3.0 0.00 0.00 0.00 56 1012.3
20260503054444 55 97 0.0 4.0 0.00 0.00 0.00 56 1012.3
20260503053942 55 109 0.0 4.0 0.00 0.00 0.00 55 1012.4
20260503053440 55 121 0.0 2.0 0.00 0.00 0.00 55 1012.4
20260503052938 55 85 0.0 2.0 0.00 0.00 0.00 55 1012.4
20260503052437 55 146 0.0 4.0 0.00 0.00 0.00 55 1012.5
20260503051936 55 321 0.0 4.0 0.00 0.00 0.00 55 1012.5
20260503051438 55 117 0.0 2.0 0.00 0.00 0.00 55 1012.4
20260503050937 55 160 0.0 2.0 0.00 0.00 0.00 55 1012.4
20260503050435 55 139 0.0 4.0 0.00 0.00 0.00 56 1012.5
20260503045934 55 36 0.0 4.0 0.00 0.00 0.00 56 1012.5
20260503045434 55 34 0.0 1.0 0.00 0.00 0.00 56 1012.4
20260503044934 55 310 0.0 2.0 0.00 0.00 0.00 56 1012.4
20260503044434 55 278 0.0 2.0 0.00 0.00 0.00 56 1012.4
20260503043934 55 218 0.0 2.0 0.00 0.00 0.00 56 1012.4
20260503043432 55 153 0.0 4.0 0.00 0.00 0.00 56 1012.4
20260503042930 55 261 0.0 4.0 0.00 0.00 0.00 56 1012.4
20260503042430 55 122 0.0 3.0 0.00 0.00 0.00 56 1012.2
20260503041925 55 141 0.0 3.0 0.00 0.00 0.00 56 1012.2
20260503041420 55 241 0.0 3.0 0.00 0.00 0.00 56 1012.2
20260503040918 55 229 0.0 2.0 0.00 0.00 0.00 56 1012.2
20260503040418 55 138 0.0 2.0 0.00 0.00 0.00 56 1012.2
20260503035916 55 253 0.0 2.0 0.00 0.00 0.00 56 1012.2
20260503035414 55 221 0.0 4.0 0.00 0.00 0.00 56 1012.2
20260503034913 55 134 0.0 4.0 0.00 0.00 0.00 56 1012.1
20260503034646 55 93 0.0 3.0 0.00 0.00 0.00 56 1012.1
20260503033909 55 203 0.0 3.0 0.00 0.00 0.00 57 1012.1
20260503033407 55 200 0.0 3.0 0.00 0.00 0.00 56 1012.0
20260503032909 55 250 0.0 4.0 0.00 0.00 0.00 56 1012.0
20260503032406 55 314 0.0 4.0 0.00 0.00 0.00 56 1012.0
20260503031908 56 317 0.0 2.0 0.00 0.00 0.00 56 1012.0
20260503031406 56 195 0.0 2.0 0.00 0.00 0.00 56 1011.8
20260503030904 55 71 0.0 3.0 0.00 0.00 0.00 56 1011.8
20260503030404 55 86 0.0 3.0 0.00 0.00 0.00 56 1011.6
20260503025904 56 250 0.0 2.0 0.00 0.00 0.00 57 1011.6
20260503025404 56 296 0.0 3.0 0.00 0.00 0.00 57 1011.5
20260503024904 56 265 1.0 3.0 0.00 0.00 0.00 57 1011.6
20260503024401 56 318 1.0 5.0 0.00 0.00 0.00 57 1011.7
20260503023900 56 286 0.0 5.0 0.00 0.00 0.00 57 1011.6
20260503023629 56 48 0.0 4.0 0.00 0.00 0.00 57 1011.7
20260503022900 56 293 1.0 4.0 0.00 0.00 0.00 57 1011.6
20260503022401 57 321 1.0 4.0 0.00 0.00 0.00 56 1011.7
20260503021902 57 115 0.0 3.0 0.00 0.00 0.00 56 1011.7
20260503021401 57 220 0.0 5.0 0.00 0.00 0.00 56 1011.6
20260503020900 57 252 0.0 5.0 0.00 0.00 0.00 56 1011.6
20260503020401 57 196 0.0 4.0 0.00 0.00 0.00 56 1011.7
20260503015900 57 217 0.0 6.0 0.00 0.00 0.00 56 1011.7
20260503015632 58 90 0.0 6.0 0.00 0.00 0.00 55 1011.7
20260503014901 58 271 0.0 3.0 0.00 0.00 0.00 55 1011.7
20260503014635 58 130 0.0 3.0 0.00 0.00 0.00 55 1011.7
20260503013901 58 159 0.0 3.0 0.00 0.00 0.00 54 1011.8
20260503013402 58 292 0.0 3.0 0.00 0.00 0.00 54 1011.8
20260503012902 58 227 1.0 3.0 0.00 0.00 0.00 53 1011.9
20260503012402 59 307 1.0 4.0 0.00 0.00 0.00 53 1012.0
20260503011902 59 323 1.0 6.0 0.00 0.00 0.00 52 1012.0
20260503011403 59 336 1.0 6.0 0.00 0.00 0.00 52 1012.0
20260503010900 59 252 1.0 7.0 0.00 0.00 0.00 51 1012.0
20260503010401 60 331 1.0 7.0 0.00 0.00 0.00 50 1012.0
20260503005900 60 255 1.0 7.0 0.00 0.00 0.00 50 1012.1
20260503005401 60 256 1.0 7.0 0.00 0.00 0.00 50 1012.1
20260503005129 60 252 1.0 5.0 0.00 0.00 0.00 50 1012.0
20260503004401 60 229 2.0 8.0 0.00 0.00 0.00 50 1012.1
20260503003901 60 18 2.0 8.0 0.00 0.00 0.00 49 1012.0
20260503003401 61 278 1.0 6.0 0.00 0.00 0.00 49 1012.0
20260503002900 61 271 1.0 4.0 0.00 0.00 0.00 49 1012.0
20260503002401 61 284 2.0 8.0 0.00 0.00 0.00 49 1012.1
20260503002128 61 284 2.0 7.0 0.00 0.00 0.00 48 1012.2
20260503002105 61 237 1.0 8.0 0.00 0.00 0.00 49 1012.1
20260503001130 61 274 2.0 7.0 0.00 0.00 0.00 48 1012.1
20260503000403 62 284 2.0 6.0 0.00 0.00 0.00 48 1012.0
20260502235902 62 293 1.0 8.0 0.00 0.00 0.00 47 1012.0
20260502235404 63 349 1.0 8.0 0.00 0.00 0.00 47 1012.2
20260502235351 63 328 2.0 8.0 0.00 0.00 0.00 47 1012.2
20260502234359 63 245 1.0 6.0 0.00 0.00 0.00 47 1012.2
20260502233853 63 309 1.0 5.0 0.00 0.00 0.00 48 1012.3
20260502233350 63 282 2.0 6.0 0.00 0.00 0.00 46 1012.3
20260502232843 64 253 1.0 6.0 0.00 0.00 0.00 45 1012.3
20260502232333 65 239 0.0 3.0 0.00 0.00 0.00 45 1012.3
20260502231831 65 206 1.0 3.0 0.00 0.00 0.00 46 1012.4
20260502231333 64 119 1.0 4.0 0.00 0.00 0.00 47 1012.4
20260502230831 63 346 1.0 4.0 0.00 0.00 0.00 46 1012.5
20260502230331 64 209 1.0 4.0 0.00 0.00 0.00 45 1012.6
20260502225829 65 244 1.0 3.0 0.00 0.00 0.00 45 1012.7
20260502225328 64 306 1.0 3.0 0.00 0.00 0.00 46 1012.8
20260502224826 64 227 1.0 3.0 0.00 0.00 0.00 45 1012.7
20260502224323 64 292 1.0 3.0 0.00 0.00 0.00 46 1012.9
20260502223824 64 192 1.0 8.0 0.00 0.00 0.00 45 1013.0
20260502223549 64 246 1.0 8.0 0.00 0.00 0.00 46 1013.0
20260502222828 65 72 0.0 3.0 0.00 0.00 0.00 45 1013.1
20260502222324 65 155 1.0 7.0 0.00 0.00 0.00 45 1013.2
20260502221822 65 251 1.0 7.0 0.00 0.00 0.00 45 1013.3
20260502221322 66 233 1.0 4.0 0.00 0.00 0.00 43 1013.4
20260502220820 67 96 1.0 2.0 0.00 0.00 0.00 43 1013.5
20260502220319 66 123 1.0 2.0 0.00 0.00 0.00 44 1013.6
20260502215824 66 150 1.0 4.0 0.00 0.00 0.00 45 1013.5
20260502215318 66 217 1.0 4.0 0.00 0.00 0.00 44 1013.5
20260502214815 65 117 1.0 6.0 0.00 0.00 0.00 45 1013.5
20260502214314 64 101 1.0 6.0 0.00 0.00 0.00 46 1013.6
20260502213815 64 105 2.0 5.0 0.00 0.00 0.00 47 1013.6
20260502213541 63 125 2.0 7.0 0.00 0.00 0.00 46 1013.6
20260502212814 63 125 1.0 7.0 0.00 0.00 0.00 46 1013.6
20260502212313 64 134 1.0 5.0 0.00 0.00 0.00 46 1013.6
20260502211812 64 332 1.0 4.0 0.00 0.00 0.00 46 1013.6
20260502211313 63 111 1.0 6.0 0.00 0.00 0.00 46 1013.6
20260502211039 63 252 1.0 6.0 0.00 0.00 0.00 47 1013.8
20260502210308 63 134 1.0 5.0 0.00 0.00 0.00 46 1013.8
20260502205808 63 142 0.0 4.0 0.00 0.00 0.00 47 1013.9
20260502205533 62 167 1.0 7.0 0.00 0.00 0.00 47 1013.9
20260502204807 62 146 1.0 7.0 0.00 0.00 0.00 47 1014.1
20260502204309 62 217 1.0 4.0 0.00 0.00 0.00 48 1013.9
20260502204035 62 107 1.0 5.0 0.00 0.00 0.00 48 1014.0
20260502203307 61 159 1.0 5.0 0.00 0.00 0.00 48 1014.1
20260502202808 61 112 1.0 7.0 0.00 0.00 0.00 48 1014.1
20260502202308 61 115 1.0 7.0 0.00 0.00 0.00 49 1014.2
20260502201804 61 96 1.0 6.0 0.00 0.00 0.00 49 1014.2
20260502201529 61 39 1.0 5.0 0.00 0.00 0.00 49 1014.2
20260502200803 60 141 1.0 4.0 0.00 0.00 0.00 49 1014.3
20260502200303 60 86 1.0 3.0 0.00 0.00 0.00 50 1014.3
20260502195803 60 121 1.0 3.0 0.00 0.00 0.00 49 1014.3
20260502195527 60 184 1.0 4.0 0.00 0.00 0.00 50 1014.3
20260502194806 60 29 0.0 4.0 0.00 0.00 0.00 49 1014.3
20260502194304 60 195 0.0 3.0 0.00 0.00 0.00 50 1014.3
20260502193804 59 82 0.0 3.0 0.00 0.00 0.00 50 1014.5
20260502193304 59 69 1.0 9.0 0.00 0.00 0.00 50 1014.4
20260502192803 59 340 1.0 9.0 0.00 0.00 0.00 49 1014.4
20260502192305 59 325 0.0 4.0 0.00 0.00 0.00 50 1014.5
20260502191803 59 283 1.0 4.0 0.00 0.00 0.00 50 1014.3
20260502191304 59 109 0.0 3.0 0.00 0.00 0.00 50 1014.3
20260502190803 59 137 0.0 3.0 0.00 0.00 0.00 50 1014.3
20260502190305 58 90 0.0 3.0 0.00 0.00 0.00 50 1014.4
20260502185804 58 208 1.0 6.0 0.00 0.00 0.00 51 1014.4
20260502185306 57 172 2.0 6.0 0.00 0.00 0.00 50 1014.4
20260502184804 57 113 1.0 4.0 0.00 0.00 0.00 50 1014.4
20260502184303 57 106 0.0 3.0 0.00 0.00 0.00 51 1014.4